Regional Weather Roundup
Issued by NWS

Home | Current Version | Previous Version | Graphics & Text | Print | Product List | Glossary Off
Versions: 1 2 3 4 5 6 7 8 9 10 11 12 13 14 15 16 17 18 19 20 21 22 23 24 25 26 27 28 29 30 31 32 33 34 35 36 37 38 39 40 41 42 43 44 45 46 47 48 49 50

000
ASUS43 KTOP 290059
RWRKS

WEATHER ROUNDUP FOR KANSAS
NATIONAL WEATHER SERVICE GOODLAND KS
800 PM CDT SAT MAY 28 2016

NOTE:  "FAIR" INDICATES FEW OR NO CLOUDS BELOW 12,000 FEET WITH NO
SIGNIFICANT WEATHER AND/OR OBSTRUCTIONS TO VISIBILITY.

KSZ001>006-013>018-027>032-041>047-290200-
NORTHWEST KANSAS

CITY           SKY/WX    TMP DP  RH WIND       PRES   REMARKS
GOODLAND       SUNNY     73  43  33 W8        30.01R
HAYS           CLEAR     75  52  43 S7        29.97R
HILL CITY      CLEAR     79  47  32 CALM      29.97R
RUSSELL        CLEAR     74  55  51 S5        29.96R
$$

KSZ061>065-074>080-084>089-290200-
SOUTHWEST KANSAS

CITY           SKY/WX    TMP DP  RH WIND       PRES   REMARKS
DODGE CITY     CLEAR     76  49  38 E6        29.99R
ELKHART          N/A    N/A N/A N/A MISG        N/A
GARDEN CITY    CLEAR     79  41  25 CALM      29.99R
GREAT BEND     CLEAR     75  52  43 CALM      29.98R
LIBERAL        CLEAR     79  45  29 S6        30.01R
$$

KSZ066>073-081>083-090>101-290200-
SOUTHEAST KANSAS

CITY           SKY/WX    TMP DP  RH WIND       PRES   REMARKS
CHANUTE        CLEAR     75  63  66 S6        29.96R
COFFEYVILLE    CLEAR     78  61  55 W5        29.96R
HUTCHINSON     CLEAR     78  58  49 CALM      29.97R
MEDICINE LODGE   N/A     82  49  31 CALM      29.96R
NEWTON         CLEAR     75  57  53 NW3         N/A
PARSONS        CLEAR     76  61  59 SW5       29.97R
WICHITA INTL   CLEAR     79  57  46 NW6       29.96R
WICHITA JABRA  CLEAR     76  59  55 NW5       29.96R
WINFIELD       CLEAR     78  59  51 SW3       29.97R
$$

KSZ007>012-019>026-033>040-048>060-102>105-290200-
NORTHEAST KANSAS

CITY           SKY/WX    TMP DP  RH WIND       PRES   REMARKS
CONCORDIA      CLEAR     73  55  53 SW7       29.94R
EMPORIA        CLEAR     74  60  61 CALM      29.96R
LAWRENCE       CLEAR     74  59  59 SW8       29.94R
MANHATTAN      CLEAR     74  58  57 SW6       29.94R
OLATHE IND     CLEAR     74  59  59 SW8       29.96R
OLATHE EXE     CLEAR     73  58  59 SW6       29.95R
SALINA         CLEAR     77  58  51 SW3       29.96R
TOPEKA BILLARD CLEAR     76  57  51 SW5       29.94R
TOPEKA FORBES  CLEAR     74  61  63 SW3       29.95R
$$




USA.gov is the U.S. government's official web portal to all federal, state and local government web resources and services.